[[{"header":{"parameterUnit":"m.s-1","parameterCategory":1,"la1":30.2991,"la2":30.254,"lo1":-89.0895,"lo2":-89.0444,"dy":0.0017,"dx":0.0017,"nx":28,"ny":28,"refTime":"2025-06-17T09:00:00:Z","depth":0,"parameterNumber":2,"parameterNumberName":"U-component_of_WINDS"},"data":[0,0,0,0,0,0,0,0,0,0,0,0,0,0,0,0,0,0,0,0,0,0,0,0,0,0,0,0,0,0,0,0,0,0,0,0,0,0,0,0,0,0,0,0,0,0,0,0,0,0,0,0,0,0,0,0,0,0,-1.2001,-1.2001,0,-1.1913,-1.1912,-1.1911,-1.1864,-1.1864,-1.1864,-1.1864,-1.177,-1.1768,-1.1766,0,0,0,0,0,0,0,0,0,0,0,0,0,-1.2127,-1.2125,-1.2002,-1.2,-1.1999,-1.1913,-1.1912,-1.1911,-1.1864,-1.1864,-1.1864,-1.1864,-1.1771,-1.1768,-1.1766,0,0,0,0,0,0,0,0,0,0,0,0,0,-1.2059,-1.2125,-1.2002,-1.1966,-1.1962,-1.1914,-1.1912,-1.1911,-1.1864,-1.1864,-1.1864,-1.1864,-1.1772,-1.1769,-1.1765,-1.1745,0,0,-1.1754,-1.1752,0,0,0,0,0,0,0,0,-1.2063,-1.2055,-1.1972,-1.1968,-1.1963,-1.19,-1.1922,-1.1855,-1.1864,-1.1901,-1.1864,-1.1864,-1.1813,-1.1806,-1.179,-1.1741,-1.1737,-1.1754,-1.1752,-1.175,-1.1749,0,0,0,0,0,0,0,-1.2068,-1.2058,-1.1966,-1.1971,-1.1966,-1.1953,-1.1944,-1.1909,-1.1859,-1.1898,-1.1894,-1.1885,-1.1811,-1.1794,-1.1787,-1.1735,-1.1754,-1.1751,-1.1748,-1.1747,-1.1666,-1.1666,0,0,0,0,0,0,-1.2079,-1.2062,-1.1969,-1.1964,-1.2014,-1.1951,-1.194,-1.192,-1.1859,-1.185,-1.1885,-1.1883,-1.18,-1.1792,-1.1784,-1.1757,-1.175,-1.1747,-1.1745,-1.1666,-1.1666,-1.1666,0,0,0,0,0,0,-1.2082,-1.2071,-1.1973,-1.2012,-1.1999,-1.1949,-1.1927,-1.1919,-1.1901,-1.1849,-1.184,-1.1877,-1.1799,-1.1789,-1.1755,-1.1753,-1.1745,-1.1742,-1.1666,-1.1666,-1.1666,-1.1702,0,0,0,0,0,0,-1.2086,-1.2072,-1.2065,-1.2012,-1.1997,-1.1947,-1.1927,-1.1917,-1.1895,-1.1892,-1.1839,-1.183,-1.1799,-1.1761,-1.1752,-1.1748,-1.1739,-1.1666,-1.1666,-1.1666,-1.1701,-1.1703,-1.1705,0,0,0,0,0,-1.209,-1.2078,-1.2064,-1.2053,-1.1986,-1.1947,-1.1938,-1.1902,-1.1895,-1.1887,-1.1854,-1.1832,-1.1755,-1.1758,-1.1747,-1.1742,-1.1666,-1.1666,-1.1666,-1.17,-1.1703,-1.1705,0,0,0,0,0,0,-1.2129,-1.207,-1.2055,-1.2025,-1.1992,-1.1939,-1.1927,-1.1907,-1.1873,-1.1871,-1.1828,-1.1817,-1.1787,-1.1761,-1.1766,-1.1719,-1.1708,-1.1706,-1.1737,-1.174,-1.1742,-1.1748,-1.1736,0,0,0,0,0,-1.2135,-1.2108,-1.2057,-1.2036,-1.202,-1.1977,-1.1958,-1.1934,-1.1897,-1.1882,-1.1846,-1.1811,-1.1778,-1.1758,-1.1725,-1.1697,-1.1685,-1.1688,-1.169,-1.1693,-1.1691,-1.1674,-1.1675,-1.1666,-1.1666,-1.1666,0,0,-1.2145,-1.2109,-1.2095,-1.2043,-1.2014,-1.1987,-1.1965,-1.1937,-1.1916,-1.1877,-1.1844,-1.1817,-1.1774,-1.1743,-1.1728,-1.172,-1.1691,-1.1693,-1.1695,-1.1692,-1.1674,-1.1675,-1.1676,-1.1666,-1.1666,-1.1666,0,0,-1.215,-1.2121,-1.21,-1.2072,-1.2029,-1.2,-1.1996,-1.1946,-1.1927,-1.1893,-1.1864,-1.1838,-1.1783,-1.1754,-1.1732,-1.1728,-1.1706,-1.1718,-1.1729,-1.1714,-1.1714,-1.1715,-1.1713,-1.1713,-1.1717,-1.1717,-1.1717,0,-1.2168,-1.2127,-1.2091,-1.2065,-1.2043,-1.2009,-1.1987,-1.1961,-1.1909,-1.1895,-1.1888,-1.1819,-1.1788,-1.175,-1.1749,-1.1732,-1.1725,-1.1723,-1.1717,-1.1717,-1.1717,-1.1715,-1.1714,-1.1719,-1.1718,-1.1718,-1.1718,0,-1.2151,-1.2123,-1.2111,-1.2063,-1.204,-1.2016,-1.1977,-1.1957,-1.1936,-1.1908,-1.1874,-1.1835,-1.1795,-1.1784,-1.1762,-1.1743,-1.174,-1.1726,-1.1713,-1.1721,-1.1718,-1.1716,-1.1721,-1.172,-1.172,-1.172,0,0,-1.2176,-1.2111,-1.2107,-1.2085,-1.2036,-1.2013,-1.1988,-1.195,-1.1934,-1.1899,-1.1877,-1.1832,-1.1819,-1.1794,-1.1769,-1.1755,-1.1754,-1.1743,-1.1741,-1.1746,-1.173,-1.1741,-1.174,-1.174,-1.174,-1.174,-1.1734,0,-1.2174,-1.2128,-1.2096,-1.2062,-1.2036,-1.2003,-1.1981,-1.1949,-1.1922,-1.1895,-1.1866,-1.1835,-1.182,-1.1805,-1.179,-1.1758,-1.175,-1.1758,-1.1718,-1.1717,-1.1729,-1.1739,-1.1749,-1.1746,-1.1733,-1.1732,-1.1732,0,-1.2165,-1.2133,-1.2097,-1.2051,-1.2039,-1.202,-1.1982,-1.1957,-1.1919,-1.1901,-1.1874,-1.1849,-1.182,-1.1811,-1.1771,-1.1777,-1.1759,-1.174,-1.1739,-1.1733,-1.1724,-1.1733,-1.1744,-1.1743,-1.173,-1.173,-1.173,0,-1.2187,-1.2135,-1.2107,-1.2089,-1.2035,-1.2023,-1.2,-1.1962,-1.1941,-1.1908,-1.1894,-1.1857,-1.1837,-1.181,-1.1775,-1.1772,-1.1738,-1.1726,-1.1721,-1.1722,-1.1715,-1.1715,-1.1723,-1.1705,-1.1705,-1.1705,-1.1705,0,-1.2187,-1.2166,-1.2116,-1.2099,-1.2074,-1.2038,-1.2014,-1.1988,-1.1955,-1.1932,-1.1901,-1.188,-1.1836,-1.1809,-1.1781,-1.1752,-1.1743,-1.1727,-1.172,-1.1729,-1.1731,-1.1716,-1.1715,-1.1704,-1.1705,-1.1705,-1.1705,0,-1.2207,-1.2173,-1.214,-1.2092,-1.208,-1.2064,-1.2023,-1.2004,-1.1977,-1.1948,-1.1939,-1.1895,-1.1862,-1.1825,-1.1779,-1.176,-1.1733,-1.1723,-1.1746,-1.1741,-1.1738,-1.1739,-1.1735,-1.1733,-1.1718,-1.1718,-1.1718,0,-1.2209,-1.2192,-1.2143,-1.2126,-1.2104,-1.2076,-1.2055,-1.2019,-1.1998,-1.1954,-1.1941,-1.1906,-1.1876,-1.1824,-1.1787,-1.1752,-1.1741,-1.1742,-1.1735,-1.1745,-1.174,-1.1741,-1.1739,-1.1743,-1.1744,-1.1744,-1.1744,0,-1.2216,-1.22,-1.2171,-1.2137,-1.2113,-1.2084,-1.2054,-1.2041,-1.1998,-1.1977,-1.1943,-1.192,-1.1873,-1.1838,-1.1799,-1.1774,-1.1752,-1.1747,-1.1744,-1.1753,-1.1767,-1.1759,-1.175,-1.1747,-1.1747,-1.1747,-1.1746,-1.1746,-1.2226,-1.221,-1.2173,-1.2143,-1.2116,-1.2089,-1.207,-1.2041,-1.2012,-1.1972,-1.1953,-1.1919,-1.1882,-1.1827,-1.1803,-1.1775,-1.1768,-1.1764,-1.1762,-1.1762,-1.1764,-1.1772,-1.1768,-1.1768,-1.1768,-1.1768,-1.1768,0,-1.2231,-1.2206,-1.2179,-1.2138,-1.2114,-1.2097,-1.2062,-1.2043,-1.2014,-1.1982,-1.1953,-1.1915,-1.1881,-1.1843,-1.1807,-1.1792,-1.1781,-1.1784,-1.1784,-1.1778,-1.1773,-1.1779,-1.1793,-1.1793,-1.1793,-1.1793,-1.1793,-1.1793,-1.2231,-1.2203,-1.2183,-1.2141,-1.2116,-1.2084,-1.2066,-1.2041,-1.2015,-1.1974,-1.1946,-1.1922,-1.1887,-1.1848,-1.1816,-1.1806,-1.1794,-1.1799,-1.1786,-1.1781,-1.1779,-1.1777,-1.1782,-1.1797,-1.1797,-1.1794,-1.1794,-1.1794]},{"header":{"parameterUnit":"m.s-1","parameterCategory":1,"la1":30.2991,"la2":30.254,"lo1":-89.0895,"lo2":-89.0444,"dy":0.0017,"dx":0.0017,"nx":28,"ny":28,"refTime":"2025-06-17T09:00:00:Z","depth":0,"parameterNumber":3,"parameterNumberName":"V-component_of_WINDS"},"data":[0,0,0,0,0,0,0,0,0,0,0,0,0,0,0,0,0,0,0,0,0,0,0,0,0,0,0,0,0,0,0,0,0,0,0,0,0,0,0,0,0,0,0,0,0,0,0,0,0,0,0,0,0,0,0,0,0,0,4.9102,4.9102,0,4.9117,4.9117,4.9117,4.9065,4.9063,4.9062,4.906,4.9073,4.9075,4.9076,0,0,0,0,0,0,0,0,0,0,0,0,0,4.9027,4.9029,4.9102,4.9102,4.9102,4.9117,4.9117,4.9117,4.9065,4.9063,4.9061,4.9059,4.9072,4.9074,4.9076,0,0,0,0,0,0,0,0,0,0,0,0,0,4.9052,4.9029,4.9102,4.9078,4.9076,4.9117,4.9117,4.9117,4.9065,4.9063,4.9061,4.9058,4.9072,4.9074,4.9077,4.914,0,0,4.9085,4.9086,0,0,0,0,0,0,0,0,4.9051,4.9055,4.9082,4.908,4.9078,4.9086,4.9095,4.9125,4.9066,4.9069,4.906,4.9057,4.9079,4.9081,4.9089,4.9141,4.9141,4.9085,4.9087,4.9088,4.9089,0,0,0,0,0,0,0,4.9049,4.9054,4.9108,4.9082,4.908,4.9066,4.9067,4.91,4.9087,4.9069,4.9065,4.9068,4.9078,4.9086,4.9089,4.9141,4.9085,4.9088,4.9089,4.909,4.9245,4.9248,0,0,0,0,0,0,4.9051,4.9053,4.9107,4.9108,4.9059,4.9069,4.907,4.9086,4.9087,4.9084,4.907,4.9065,4.9083,4.9086,4.9089,4.9163,4.9088,4.909,4.9092,4.9243,4.9246,4.9249,0,0,0,0,0,0,4.905,4.9056,4.9107,4.908,4.9085,4.9073,4.9091,4.9088,4.9096,4.9087,4.9084,4.9081,4.9081,4.9085,4.9128,4.9163,4.9092,4.9094,4.924,4.9244,4.9247,4.9311,0,0,0,0,0,0,4.9048,4.9056,4.9081,4.9081,4.9087,4.9146,4.9093,4.9089,4.9101,4.9096,4.9097,4.9095,4.908,4.9124,4.913,4.9165,4.9096,4.9237,4.9242,4.9246,4.9306,4.9317,4.9326,0,0,0,0,0,4.9045,4.9098,4.9082,4.9089,4.9117,4.9148,4.9152,4.9133,4.9104,4.9128,4.9123,4.9095,4.9158,4.9129,4.9136,4.9172,4.9235,4.924,4.9246,4.9302,4.9315,4.9326,0,0,0,0,0,0,4.9101,4.9097,4.908,4.9134,4.9142,4.9139,4.9169,4.9148,4.9163,4.9157,4.9133,4.9134,4.9181,4.918,4.9148,4.9233,4.9191,4.9198,4.9231,4.9244,4.9253,4.9252,4.9098,0,0,0,0,0,4.912,4.9146,4.9141,4.9189,4.9194,4.9181,4.9194,4.9179,4.9186,4.9189,4.9186,4.9194,4.9215,4.9229,4.9248,4.9306,4.9305,4.9334,4.9344,4.9352,4.9359,4.9389,4.9401,4.9267,4.9267,4.9267,0,0,4.9159,4.916,4.9178,4.9201,4.9205,4.9232,4.9184,4.9215,4.9235,4.9193,4.9234,4.9232,4.9238,4.9289,4.9311,4.929,4.9396,4.9359,4.9366,4.9368,4.9396,4.9409,4.942,4.9271,4.9271,4.927,0,0,4.9243,4.9247,4.9287,4.9293,4.9301,4.9292,4.9301,4.9302,4.93,4.934,4.931,4.9332,4.9369,4.9375,4.9383,4.947,4.9446,4.9477,4.9529,4.9559,4.957,4.9579,4.961,4.9621,4.9484,4.9484,4.9484,0,4.929,4.9331,4.9311,4.9344,4.9355,4.9319,4.936,4.9366,4.9379,4.9387,4.9363,4.9409,4.9411,4.9462,4.9484,4.9491,4.9501,4.9477,4.957,4.9579,4.9587,4.9616,4.9628,4.9487,4.9487,4.9487,4.9486,0,4.9388,4.9416,4.9448,4.9463,4.9477,4.9514,4.9499,4.9515,4.9499,4.9493,4.9534,4.9535,4.9554,4.9565,4.9549,4.9614,4.9601,4.9574,4.9532,4.9604,4.9631,4.9642,4.9493,4.9492,4.949,4.9489,0,0,4.9508,4.9511,4.9523,4.9529,4.9535,4.9556,4.9591,4.961,4.9625,4.9635,4.9663,4.9696,4.9671,4.968,4.9665,4.9691,4.976,4.9661,4.9661,4.9679,4.9831,4.9851,4.9864,4.9744,4.9746,4.9747,4.983,0,4.9591,4.9651,4.9634,4.9694,4.972,4.9687,4.9717,4.9724,4.9719,4.9739,4.9733,4.9756,4.9722,4.9727,4.9752,4.9746,4.979,4.974,4.9769,4.977,4.9768,4.9878,4.99,4.9978,4.9841,4.9843,4.9844,0,4.9695,4.9711,4.9774,4.9775,4.9786,4.9813,4.9829,4.9849,4.9856,4.985,4.9861,4.984,4.9874,4.9832,4.9877,4.9844,4.9855,4.9854,4.9856,4.9858,4.9811,4.9883,5.0002,5.0014,4.986,4.9859,4.9858,0,4.9777,4.9813,4.9855,4.9861,4.9864,4.9884,4.9886,4.9891,4.9903,4.9917,4.9925,4.9942,4.9951,4.9965,4.9949,4.992,4.9997,4.9954,4.9993,4.9994,5.0011,5.001,5.0133,5.0018,5.0018,5.0018,5.0018,0,4.9871,4.9911,4.9891,4.9918,4.9961,4.9941,4.9984,4.9982,4.9987,5.0011,4.9983,5.0007,4.9985,5.0006,4.9994,5.0034,5.0038,5.0034,5.003,5.0037,5.0037,5.0043,5.0037,5.0021,5.002,5.002,5.0019,0,4.9969,4.9957,5.0001,5.0001,5.0002,5.0034,5.0033,5.0056,5.0049,5.0081,5.0087,5.0076,5.0099,5.0085,5.0109,5.0101,5.0153,5.0142,5.0151,5.0148,5.0187,5.0184,5.0319,5.0336,5.021,5.0211,5.0213,0,5.0029,5.0059,5.0062,5.0077,5.0081,5.0105,5.0118,5.01,5.0114,5.0124,5.0146,5.0168,5.0184,5.0223,5.0217,5.0235,5.0224,5.027,5.0226,5.0232,5.0224,5.0223,5.0225,5.0279,5.028,5.0281,5.0282,0,5.0139,5.0132,5.0152,5.017,5.0186,5.0199,5.021,5.0223,5.0205,5.0222,5.0247,5.0259,5.0284,5.0306,5.0321,5.0322,5.0299,5.0296,5.0306,5.0313,5.0317,5.0315,5.0175,5.0293,5.0292,5.0291,5.0291,5.029,5.022,5.0245,5.0251,5.0274,5.028,5.0291,5.0313,5.0309,5.0329,5.0348,5.0336,5.0365,5.037,5.0388,5.0393,5.0414,5.0396,5.041,5.0414,5.0418,5.0423,5.0314,5.0417,5.0417,5.0416,5.0416,5.0416,0,5.0327,5.0329,5.0351,5.0367,5.0385,5.0363,5.0373,5.039,5.0416,5.0423,5.044,5.0467,5.0488,5.0484,5.0502,5.0521,5.0511,5.0526,5.0524,5.0525,5.0439,5.0428,5.0534,5.0534,5.0534,5.0534,5.0534,5.0534,5.0385,5.0426,5.042,5.0464,5.0466,5.0494,5.0502,5.0512,5.0517,5.055,5.0567,5.0565,5.0567,5.0586,5.0603,5.0601,5.0609,5.0629,5.0623,5.0543,5.0531,5.052,5.051,5.0631,5.0631,5.0707,5.0708,5.0709]}]]